Time,TemperatureF,DewpointF,PressureIn,WindDirection,WindDirectionDegrees,WindSpeedMPH,WindSpeedGustMPH,Humidity,HourlyPrecipIn,Conditions,Clouds,dailyrainin,SoftwareType,DateUTC
2013-04-21 00:00:00,55.9,37.0,29.32,South,181,7.6,7.6,49,0.00,,---,0.00,VWS V14.00,2013-04-21 05:00:00,
2013-04-21 00:03:00,55.9,37.0,29.32,SSE,165,5.4,7.6,49,0.00,,---,0.00,VWS V14.00,2013-04-21 05:03:00,
2013-04-21 00:05:00,55.7,36.9,29.32,SSE,168,3.1,7.6,49,0.00,,---,0.00,VWS V14.00,2013-04-21 05:05:00,
2013-04-21 00:06:00,55.7,36.9,29.32,SSW,198,5.4,5.4,49,0.00,,---,0.00,VWS V14.00,2013-04-21 05:06:00,
2013-04-21 00:09:00,55.7,36.9,29.32,SSW,198,5.4,5.4,49,0.00,,---,0.00,VWS V14.00,2013-04-21 05:09:00,
2013-04-21 00:12:00,55.7,36.9,29.32,SE,144,5.4,5.4,49,0.00,,---,0.00,VWS V14.00,2013-04-21 05:12:00,
2013-04-21 00:18:00,55.7,36.9,29.32,SSE,162,5.8,6.3,49,0.00,,---,0.00,VWS V14.00,2013-04-21 05:18:00,
2013-04-21 00:20:00,55.6,36.7,29.32,SE,146,3.6,6.3,49,0.00,,---,0.00,VWS V14.00,2013-04-21 05:20:00,
2013-04-21 00:27:00,55.6,36.7,29.32,SE,141,4.0,4.0,49,0.00,,---,0.00,VWS V14.00,2013-04-21 05:27:00,
2013-04-21 00:30:00,55.6,36.2,29.32,SE,141,4.5,4.5,48,0.00,,---,0.00,VWS V14.00,2013-04-21 05:30:00,
2013-04-21 00:33:00,55.6,36.2,29.32,South,181,5.8,5.8,48,0.00,,---,0.00,VWS V14.00,2013-04-21 05:33:00,
2013-04-21 00:35:00,55.6,36.2,29.32,SSE,155,3.6,7.2,48,0.00,,---,0.00,VWS V14.00,2013-04-21 05:35:00,
2013-04-21 00:36:00,55.6,36.2,29.32,SSE,155,3.6,3.6,48,0.00,,---,0.00,VWS V14.00,2013-04-21 05:36:00,
2013-04-21 00:39:00,55.4,36.0,29.32,SSE,147,2.2,5.4,48,0.00,,---,0.00,VWS V14.00,2013-04-21 05:39:00,
2013-04-21 00:42:00,55.2,35.9,29.32,SSE,158,5.4,5.4,48,0.00,,---,0.00,VWS V14.00,2013-04-21 05:42:00,
2013-04-21 00:45:00,55.2,35.9,29.32,SSE,165,2.7,5.4,48,0.00,,---,0.00,VWS V14.00,2013-04-21 05:45:00,
2013-04-21 00:50:00,55.2,35.9,29.32,South,170,8.1,8.1,48,0.00,,---,0.00,VWS V14.00,2013-04-21 05:50:00,
2013-04-21 00:51:00,55.2,35.9,29.32,South,170,8.1,8.1,48,0.00,,---,0.00,VWS V14.00,2013-04-21 05:51:00,
2013-04-21 00:54:00,55.2,35.9,29.32,South,183,5.8,8.1,48,0.00,,---,0.00,VWS V14.00,2013-04-21 05:54:00,
2013-04-21 00:57:00,55.0,36.2,29.32,SSE,154,6.7,8.1,49,0.00,,---,0.00,VWS V14.00,2013-04-21 05:57:00,
2013-04-21 01:00:00,55.0,36.2,29.32,SSE,154,6.7,8.1,49,0.00,,---,0.00,VWS V14.00,2013-04-21 06:00:00,
2013-04-21 01:03:00,55.0,36.2,29.32,SSE,163,5.4,8.1,49,0.00,,---,0.00,VWS V14.00,2013-04-21 06:03:00,
2013-04-21 01:05:00,55.0,36.2,29.32,SSE,163,5.4,8.1,49,0.00,,---,0.00,VWS V14.00,2013-04-21 06:05:00,
2013-04-21 01:06:00,55.0,36.2,29.32,SSE,163,5.4,5.4,49,0.00,,---,0.00,VWS V14.00,2013-04-21 06:06:00,
2013-04-21 01:09:00,55.0,36.2,29.32,SSE,163,5.4,5.4,49,0.00,,---,0.00,VWS V14.00,2013-04-21 06:09:00,
2013-04-21 01:12:00,54.8,36.1,29.32,SSE,149,4.0,5.4,49,0.00,,---,0.00,VWS V14.00,2013-04-21 06:12:00,
2013-04-21 01:15:00,54.8,36.1,29.35,SSE,150,3.6,5.4,49,0.00,,---,0.00,VWS V14.00,2013-04-21 06:15:00,
2013-04-21 01:20:00,54.8,36.1,29.35,South,180,4.0,5.4,49,0.00,,---,0.00,VWS V14.00,2013-04-21 06:20:00,
2013-04-21 01:21:00,54.8,36.1,29.35,SE,124,0.0,4.0,49,0.00,,---,0.00,VWS V14.00,2013-04-21 06:21:00,
2013-04-21 01:24:00,54.8,36.1,29.35,SSE,163,2.7,4.0,49,0.00,,---,0.00,VWS V14.00,2013-04-21 06:24:00,
2013-04-21 01:27:00,54.5,36.2,29.35,South,179,5.4,5.4,50,0.00,,---,0.00,VWS V14.00,2013-04-21 06:27:00,
2013-04-21 01:30:00,54.5,36.2,29.35,SSE,158,2.7,5.4,50,0.00,,---,0.00,VWS V14.00,2013-04-21 06:30:00,
2013-04-21 01:33:00,54.5,36.2,29.35,SSE,159,6.3,6.3,50,0.00,,---,0.00,VWS V14.00,2013-04-21 06:33:00,
2013-04-21 01:35:00,54.3,36.1,29.35,SSE,159,6.3,6.3,50,0.00,,---,0.00,VWS V14.00,2013-04-21 06:35:00,
2013-04-21 01:36:00,54.3,36.1,29.35,SSE,164,5.8,6.3,50,0.00,,---,0.00,VWS V14.00,2013-04-21 06:36:00,
2013-04-21 01:39:00,54.3,36.1,29.35,SSE,164,5.8,6.3,50,0.00,,---,0.00,VWS V14.00,2013-04-21 06:39:00,
2013-04-21 01:42:00,54.3,36.1,29.35,SSW,206,3.1,6.3,50,0.00,,---,0.00,VWS V14.00,2013-04-21 06:42:00,
2013-04-21 01:45:00,54.1,36.4,29.32,SSE,158,3.1,6.3,51,0.00,,---,0.00,VWS V14.00,2013-04-21 06:45:00,
2013-04-21 01:48:00,54.1,36.4,29.32,South,171,2.7,6.3,51,0.00,,---,0.00,VWS V14.00,2013-04-21 06:48:00,
2013-04-21 01:50:00,54.1,36.4,29.32,South,173,4.0,6.3,51,0.00,,---,0.00,VWS V14.00,2013-04-21 06:50:00,
2013-04-21 01:51:00,54.1,36.4,29.32,South,173,4.0,4.0,51,0.00,,---,0.00,VWS V14.00,2013-04-21 06:51:00,
2013-04-21 01:54:00,53.9,36.2,29.32,SSE,161,4.0,7.6,51,0.00,,---,0.00,VWS V14.00,2013-04-21 06:54:00,
2013-04-21 02:00:00,53.9,36.2,29.35,SSE,161,3.1,7.6,51,0.00,,---,0.00,VWS V14.00,2013-04-21 07:00:00,
2013-04-21 02:03:00,53.9,36.2,29.35,SSE,161,3.1,7.6,51,0.00,,---,0.00,VWS V14.00,2013-04-21 07:03:00,
2013-04-21 02:05:00,53.9,36.2,29.35,South,179,3.6,7.6,51,0.00,,---,0.00,VWS V14.00,2013-04-21 07:05:00,
2013-04-21 02:06:00,53.9,36.2,29.35,South,179,3.6,3.6,51,0.00,,---,0.00,VWS V14.00,2013-04-21 07:06:00,
2013-04-21 02:09:00,53.8,36.6,29.35,SSE,168,2.7,5.8,52,0.00,,---,0.00,VWS V14.00,2013-04-21 07:09:00,
2013-04-21 02:12:00,53.8,36.6,29.35,East,92,4.0,5.8,52,0.00,,---,0.00,VWS V14.00,2013-04-21 07:12:00,
2013-04-21 02:15:00,53.8,36.6,29.35,SSE,163,3.1,5.8,52,0.00,,---,0.00,VWS V14.00,2013-04-21 07:15:00,
2013-04-21 02:20:00,53.6,36.4,29.35,SSE,157,3.1,5.8,52,0.00,,---,0.00,VWS V14.00,2013-04-21 07:20:00,
2013-04-21 02:27:00,53.4,36.7,29.32,SSE,165,4.0,4.9,53,0.00,,---,0.00,VWS V14.00,2013-04-21 07:27:00,
2013-04-21 02:30:00,53.4,36.7,29.32,SSE,154,2.7,4.9,53,0.00,,---,0.00,VWS V14.00,2013-04-21 07:30:00,
2013-04-21 02:33:00,53.4,36.7,29.32,SSE,154,2.7,4.9,53,0.00,,---,0.00,VWS V14.00,2013-04-21 07:33:00,
2013-04-21 02:35:00,53.4,37.2,29.32,SSE,154,2.7,4.9,54,0.00,,---,0.00,VWS V14.00,2013-04-21 07:35:00,
2013-04-21 02:36:00,53.4,37.2,29.32,SSE,163,4.0,4.0,54,0.00,,---,0.00,VWS V14.00,2013-04-21 07:36:00,
2013-04-21 02:42:00,53.2,37.5,29.32,East,94,0.0,4.0,55,0.00,,---,0.00,VWS V14.00,2013-04-21 07:42:00,
2013-04-21 02:45:00,53.2,37.5,29.32,ENE,72,3.1,4.0,55,0.00,,---,0.00,VWS V14.00,2013-04-21 07:45:00,
2013-04-21 02:50:00,53.0,37.8,29.32,SSE,154,2.7,4.0,56,0.00,,---,0.00,VWS V14.00,2013-04-21 07:50:00,
2013-04-21 02:54:00,53.0,37.8,29.32,East,85,2.7,2.7,56,0.00,,---,0.00,VWS V14.00,2013-04-21 07:54:00,
2013-04-21 03:00:00,52.9,38.1,29.32,SE,136,4.0,4.0,57,0.00,,---,0.00,VWS V14.00,2013-04-21 08:00:00,
2013-04-21 03:05:00,52.9,38.1,29.32,SSE,157,0.0,4.0,57,0.00,,---,0.00,VWS V14.00,2013-04-21 08:05:00,
2013-04-21 03:06:00,52.9,38.1,29.32,SSE,157,0.0,0.0,57,0.00,,---,0.00,VWS V14.00,2013-04-21 08:06:00,
2013-04-21 03:09:00,52.7,37.9,29.32,South,170,2.7,2.7,57,0.00,,---,0.00,VWS V14.00,2013-04-21 08:09:00,
2013-04-21 03:15:00,52.7,38.3,29.35,South,170,0.0,2.7,58,0.00,,---,0.00,VWS V14.00,2013-04-21 08:15:00,
2013-04-21 03:18:00,52.5,38.2,29.35,South,170,0.0,2.7,58,0.00,,---,0.00,VWS V14.00,2013-04-21 08:18:00,
2013-04-21 03:21:00,52.5,38.2,29.35,SSE,163,3.1,3.1,58,0.00,,---,0.00,VWS V14.00,2013-04-21 08:21:00,
2013-04-21 03:24:00,52.3,38.0,29.35,SSE,163,3.1,3.1,58,0.00,,---,0.00,VWS V14.00,2013-04-21 08:24:00,
2013-04-21 03:27:00,52.3,38.4,29.35,SSE,163,3.1,3.1,59,0.00,,---,0.00,VWS V14.00,2013-04-21 08:27:00,
2013-04-21 03:30:00,52.3,38.4,29.35,South,169,2.7,3.1,59,0.00,,---,0.00,VWS V14.00,2013-04-21 08:30:00,
2013-04-21 03:33:00,52.3,38.4,29.35,SSE,166,3.6,4.0,59,0.00,,---,0.00,VWS V14.00,2013-04-21 08:33:00,
2013-04-21 03:35:00,52.1,38.3,29.35,SSE,166,3.6,4.0,59,0.00,,---,0.00,VWS V14.00,2013-04-21 08:35:00,
2013-04-21 03:39:00,52.1,38.3,29.35,SSE,157,0.0,3.6,59,0.00,,---,0.00,VWS V14.00,2013-04-21 08:39:00,
2013-04-21 03:42:00,52.0,38.5,29.35,SSE,157,0.0,3.6,60,0.00,,---,0.00,VWS V14.00,2013-04-21 08:42:00,
2013-04-21 03:45:00,52.0,38.5,29.35,South,169,3.1,3.6,60,0.00,,---,0.00,VWS V14.00,2013-04-21 08:45:00,
2013-04-21 03:48:00,52.0,38.5,29.35,SE,142,3.1,3.6,60,0.00,,---,0.00,VWS V14.00,2013-04-21 08:48:00,
2013-04-21 03:50:00,51.8,38.3,29.35,SSE,164,3.1,3.6,60,0.00,,---,0.00,VWS V14.00,2013-04-21 08:50:00,
2013-04-21 03:51:00,51.8,38.3,29.35,SSE,159,3.1,3.1,60,0.00,,---,0.00,VWS V14.00,2013-04-21 08:51:00,
2013-04-21 03:54:00,51.8,38.3,29.35,SSE,157,2.7,3.1,60,0.00,,---,0.00,VWS V14.00,2013-04-21 08:54:00,
2013-04-21 03:57:00,51.8,38.3,29.35,South,182,4.0,4.0,60,0.00,,---,0.00,VWS V14.00,2013-04-21 08:57:00,
2013-04-21 04:00:00,51.6,38.2,29.35,SSE,158,2.7,4.0,60,0.00,,---,0.00,VWS V14.00,2013-04-21 09:00:00,
2013-04-21 04:03:00,51.6,38.2,29.35,SSW,193,6.3,6.3,60,0.00,,---,0.00,VWS V14.00,2013-04-21 09:03:00,
2013-04-21 04:06:00,51.6,38.2,29.35,ENE,61,2.2,3.1,60,0.00,,---,0.00,VWS V14.00,2013-04-21 09:06:00,
2013-04-21 04:09:00,51.2,38.3,29.35,SSE,157,0.0,3.1,61,0.00,,---,0.00,VWS V14.00,2013-04-21 09:09:00,
2013-04-21 04:15:00,51.2,38.3,29.35,SSE,157,0.0,3.1,61,0.00,,---,0.00,VWS V14.00,2013-04-21 09:15:00,
2013-04-21 04:20:00,51.2,38.3,29.35,SE,146,2.7,3.6,61,0.00,,---,0.00,VWS V14.00,2013-04-21 09:20:00,
2013-04-21 04:21:00,51.2,38.3,29.35,SE,146,2.7,2.7,61,0.00,,---,0.00,VWS V14.00,2013-04-21 09:21:00,
2013-04-21 04:27:00,51.1,38.1,29.35,SE,146,2.7,2.7,61,0.00,,---,0.00,VWS V14.00,2013-04-21 09:27:00,
2013-04-21 04:30:00,51.1,38.1,29.35,SE,134,0.0,2.7,61,0.00,,---,0.00,VWS V14.00,2013-04-21 09:30:00,
2013-04-21 04:33:00,51.1,38.1,29.35,SE,134,0.0,2.7,61,0.00,,---,0.00,VWS V14.00,2013-04-21 09:33:00,
2013-04-21 04:36:00,51.1,38.1,29.35,SSE,154,0.0,0.0,61,0.00,,---,0.00,VWS V14.00,2013-04-21 09:36:00,
2013-04-21 04:39:00,51.1,38.1,29.35,SSE,165,0.0,0.0,61,0.00,,---,0.00,VWS V14.00,2013-04-21 09:39:00,
2013-04-21 04:45:00,50.9,37.9,29.35,SSE,166,2.2,2.2,61,0.00,,---,0.00,VWS V14.00,2013-04-21 09:45:00,
2013-04-21 04:50:00,50.9,38.3,29.35,SSE,158,2.2,2.2,62,0.00,,---,0.00,VWS V14.00,2013-04-21 09:50:00,
2013-04-21 04:51:00,50.9,38.3,29.35,SSE,158,2.2,2.2,62,0.00,,---,0.00,VWS V14.00,2013-04-21 09:51:00,
2013-04-21 04:57:00,50.7,38.2,29.35,SSE,158,0.0,2.2,62,0.00,,---,0.00,VWS V14.00,2013-04-21 09:57:00,
2013-04-21 05:04:00,50.3,37.8,29.35,SE,140,2.7,2.7,62,0.00,,---,0.00,VWS V14.00,2013-04-21 10:04:00,
2013-04-21 05:05:00,50.3,37.8,29.35,SE,140,2.7,2.7,62,0.00,,---,0.00,VWS V14.00,2013-04-21 10:05:00,
2013-04-21 05:07:00,50.3,37.8,29.35,SE,140,2.7,2.7,62,0.00,,---,0.00,VWS V14.00,2013-04-21 10:07:00,
2013-04-21 05:13:00,50.3,37.8,29.35,South,183,0.0,2.7,62,0.00,,---,0.00,VWS V14.00,2013-04-21 10:13:00,
2013-04-21 05:19:00,50.0,37.5,29.35,SSE,160,0.0,2.7,62,0.00,,---,0.00,VWS V14.00,2013-04-21 10:19:00,
2013-04-21 05:20:00,50.0,37.5,29.35,East,93,2.7,2.7,62,0.00,,---,0.00,VWS V14.00,2013-04-21 10:20:00,
2013-04-21 05:28:00,50.0,37.5,29.35,SSE,152,0.0,2.7,62,0.00,,---,0.00,VWS V14.00,2013-04-21 10:28:00,
2013-04-21 05:31:00,49.8,37.3,29.35,SSE,152,0.0,2.7,62,0.00,,---,0.00,VWS V14.00,2013-04-21 10:31:00,
2013-04-21 05:34:00,49.6,37.2,29.35,SE,136,0.0,2.7,62,0.00,,---,0.00,VWS V14.00,2013-04-21 10:34:00,
2013-04-21 05:35:00,49.6,37.2,29.35,SE,136,0.0,2.7,62,0.00,,---,0.00,VWS V14.00,2013-04-21 10:35:00,
2013-04-21 05:40:00,49.6,37.2,29.35,SE,142,0.0,2.2,62,0.00,,---,0.00,VWS V14.00,2013-04-21 10:40:00,
2013-04-21 05:43:00,49.4,37.0,29.35,SE,146,0.0,2.2,62,0.00,,---,0.00,VWS V14.00,2013-04-21 10:43:00,
2013-04-21 05:46:00,49.4,37.4,29.38,SE,146,0.0,2.2,63,0.00,,---,0.00,VWS V14.00,2013-04-21 10:46:00,
2013-04-21 05:49:00,49.3,36.8,29.38,SE,146,0.0,2.2,62,0.00,,---,0.00,VWS V14.00,2013-04-21 10:49:00,
2013-04-21 05:50:00,49.3,36.8,29.38,SE,146,0.0,2.2,62,0.00,,---,0.00,VWS V14.00,2013-04-21 10:50:00,
2013-04-21 05:52:00,49.3,36.8,29.38,SE,146,0.0,0.0,62,0.00,,---,0.00,VWS V14.00,2013-04-21 10:52:00,
2013-04-21 05:58:00,49.1,37.0,29.38,SE,146,0.0,0.0,63,0.00,,---,0.00,VWS V14.00,2013-04-21 10:58:00,
2013-04-21 06:01:00,48.9,36.9,29.38,ESE,104,0.0,0.0,63,0.00,,---,0.00,VWS V14.00,2013-04-21 11:01:00,
2013-04-21 06:04:00,48.9,36.9,29.38,ESE,104,0.0,0.0,63,0.00,,---,0.00,VWS V14.00,2013-04-21 11:04:00,
2013-04-21 06:05:00,48.7,36.7,29.38,ESE,104,0.0,0.0,63,0.00,,---,0.00,VWS V14.00,2013-04-21 11:05:00,
2013-04-21 06:13:00,48.7,36.7,29.38,SSE,166,0.0,2.7,63,0.00,,---,0.00,VWS V14.00,2013-04-21 11:13:00,
2013-04-21 06:16:00,48.7,36.7,29.38,SSE,166,0.0,2.7,63,0.00,,---,0.00,VWS V14.00,2013-04-21 11:16:00,
2013-04-21 06:19:00,48.5,36.5,29.38,South,184,0.0,2.7,63,0.00,,---,0.00,VWS V14.00,2013-04-21 11:19:00,
2013-04-21 06:20:00,48.5,36.5,29.38,South,184,0.0,2.7,63,0.00,,---,0.00,VWS V14.00,2013-04-21 11:20:00,
2013-04-21 06:22:00,48.5,36.5,29.38,South,185,2.7,2.7,63,0.00,,---,0.00,VWS V14.00,2013-04-21 11:22:00,
2013-04-21 06:25:00,48.5,36.5,29.38,South,185,0.0,2.7,63,0.00,,---,0.00,VWS V14.00,2013-04-21 11:25:00,
2013-04-21 06:28:00,48.5,36.5,29.38,South,185,0.0,4.0,63,0.00,,---,0.00,VWS V14.00,2013-04-21 11:28:00,
2013-04-21 06:31:00,48.5,36.5,29.38,South,185,0.0,4.0,63,0.00,,---,0.00,VWS V14.00,2013-04-21 11:31:00,
2013-04-21 06:35:00,48.5,36.5,29.38,South,173,0.0,4.0,63,0.00,,---,0.00,VWS V14.00,2013-04-21 11:35:00,
2013-04-21 06:37:00,48.5,36.5,29.38,South,173,0.0,0.0,63,0.00,,---,0.00,VWS V14.00,2013-04-21 11:37:00,
2013-04-21 06:43:00,48.5,36.5,29.41,South,176,0.0,2.2,63,0.00,,---,0.00,VWS V14.00,2013-04-21 11:43:00,
2013-04-21 06:46:00,48.5,36.5,29.41,South,176,0.0,2.2,63,0.00,,---,0.00,VWS V14.00,2013-04-21 11:46:00,
2013-04-21 06:49:00,48.5,36.1,29.41,South,176,0.0,2.2,62,0.00,,---,0.00,VWS V14.00,2013-04-21 11:49:00,
2013-04-21 06:52:00,48.5,36.1,29.41,South,176,0.0,0.0,62,0.00,,---,0.00,VWS V14.00,2013-04-21 11:52:00,
2013-04-21 06:58:00,48.7,36.3,29.41,South,176,0.0,0.0,62,0.00,,---,0.00,VWS V14.00,2013-04-21 11:58:00,
2013-04-21 07:01:00,48.9,36.5,29.41,South,176,0.0,0.0,62,0.00,,---,0.00,VWS V14.00,2013-04-21 12:01:00,
2013-04-21 07:04:00,48.9,36.5,29.41,South,176,0.0,0.0,62,0.00,,---,0.00,VWS V14.00,2013-04-21 12:04:00,
2013-04-21 07:05:00,49.1,36.2,29.41,South,176,0.0,0.0,61,0.00,,---,0.00,VWS V14.00,2013-04-21 12:05:00,
2013-04-21 07:07:00,49.1,36.2,29.41,South,176,0.0,0.0,61,0.00,,---,0.00,VWS V14.00,2013-04-21 12:07:00,
2013-04-21 07:10:00,49.3,36.4,29.41,South,176,0.0,0.0,61,0.00,,---,0.00,VWS V14.00,2013-04-21 12:10:00,
2013-04-21 07:13:00,49.6,36.7,29.41,SSE,168,0.0,0.0,61,0.00,,---,0.00,VWS V14.00,2013-04-21 12:13:00,
2013-04-21 07:19:00,49.8,36.5,29.41,SE,141,0.0,0.0,60,0.00,,---,0.00,VWS V14.00,2013-04-21 12:19:00,
2013-04-21 07:20:00,50.0,36.7,29.41,SE,141,0.0,0.0,60,0.00,,---,0.00,VWS V14.00,2013-04-21 12:20:00,
2013-04-21 07:25:00,50.2,36.4,29.41,SSW,192,4.0,4.0,59,0.00,,---,0.00,VWS V14.00,2013-04-21 12:25:00,
2013-04-21 07:31:00,50.5,36.7,29.41,South,170,0.0,4.0,59,0.00,,---,0.00,VWS V14.00,2013-04-21 12:31:00,
2013-04-21 07:34:00,50.7,36.9,29.41,South,171,3.6,4.0,59,0.00,,---,0.00,VWS V14.00,2013-04-21 12:34:00,
2013-04-21 07:37:00,50.7,36.9,29.41,SSE,168,4.0,4.0,59,0.00,,---,0.00,VWS V14.00,2013-04-21 12:37:00,
2013-04-21 07:40:00,51.1,36.8,29.41,SSE,151,4.9,4.9,58,0.00,,---,0.00,VWS V14.00,2013-04-21 12:40:00,
2013-04-21 07:46:00,51.1,36.8,29.41,South,169,4.0,4.9,58,0.00,,---,0.00,VWS V14.00,2013-04-21 12:46:00,
2013-04-21 07:49:00,51.4,36.7,29.41,South,185,3.6,4.9,57,0.00,,---,0.00,VWS V14.00,2013-04-21 12:49:00,
2013-04-21 07:52:00,51.4,36.7,29.41,South,182,3.6,3.6,57,0.00,,---,0.00,VWS V14.00,2013-04-21 12:52:00,
2013-04-21 07:55:00,51.4,36.7,29.41,South,170,4.9,5.8,57,0.00,,---,0.00,VWS V14.00,2013-04-21 12:55:00,
2013-04-21 07:58:00,51.6,36.4,29.41,SSE,148,8.1,8.1,56,0.00,,---,0.00,VWS V14.00,2013-04-21 12:58:00,
2013-04-21 08:01:00,51.6,36.4,29.41,South,170,3.1,8.1,56,0.00,,---,0.00,VWS V14.00,2013-04-21 13:01:00,
2013-04-21 08:04:00,51.8,36.6,29.41,SSE,151,4.0,8.1,56,0.00,,---,0.00,VWS V14.00,2013-04-21 13:04:00,
2013-04-21 08:05:00,51.8,36.2,29.41,SSE,151,4.0,8.1,55,0.00,,---,0.00,VWS V14.00,2013-04-21 13:05:00,
2013-04-21 08:10:00,51.8,36.2,29.41,SSE,154,3.1,5.8,55,0.00,,---,0.00,VWS V14.00,2013-04-21 13:10:00,
2013-04-21 08:16:00,52.1,36.0,29.41,ENE,71,3.6,5.8,54,0.00,,---,0.00,VWS V14.00,2013-04-21 13:16:00,
2013-04-21 08:19:00,52.3,36.2,29.41,SSE,165,4.0,5.8,54,0.00,,---,0.00,VWS V14.00,2013-04-21 13:19:00,
2013-04-21 08:20:00,52.3,36.2,29.41,SSE,165,4.0,5.8,54,0.00,,---,0.00,VWS V14.00,2013-04-21 13:20:00,
2013-04-21 08:22:00,52.7,36.5,29.41,South,169,5.8,5.8,54,0.00,,---,0.00,VWS V14.00,2013-04-21 13:22:00,
2013-04-21 08:25:00,52.7,36.5,29.41,SSE,156,5.4,5.8,54,0.00,,---,0.00,VWS V14.00,2013-04-21 13:25:00,
2013-04-21 08:31:00,53.0,36.4,29.41,SE,135,7.6,7.6,53,0.00,,---,0.00,VWS V14.00,2013-04-21 13:31:00,
2013-04-21 08:35:00,53.0,36.4,29.41,SSE,163,7.6,7.6,53,0.00,,---,0.00,VWS V14.00,2013-04-21 13:35:00,
2013-04-21 08:37:00,53.2,36.5,29.41,SSE,168,5.4,7.6,53,0.00,,---,0.00,VWS V14.00,2013-04-21 13:37:00,
2013-04-21 08:43:00,53.4,36.2,29.41,SSE,156,3.6,7.6,52,0.00,,---,0.00,VWS V14.00,2013-04-21 13:43:00,
2013-04-21 08:46:00,53.6,36.4,29.41,SSE,157,4.0,7.6,52,0.00,,---,0.00,VWS V14.00,2013-04-21 13:46:00,
2013-04-21 08:49:00,53.9,36.7,29.41,SSE,157,4.0,7.6,52,0.00,,---,0.00,VWS V14.00,2013-04-21 13:49:00,
2013-04-21 08:52:00,54.1,36.9,29.41,SSE,163,6.3,6.3,52,0.00,,---,0.00,VWS V14.00,2013-04-21 13:52:00,
2013-04-21 08:55:00,54.3,37.1,29.41,SSE,152,5.8,6.3,52,0.00,,---,0.00,VWS V14.00,2013-04-21 13:55:00,
2013-04-21 08:58:00,54.5,36.7,29.41,South,184,5.8,6.3,51,0.00,,---,0.00,VWS V14.00,2013-04-21 13:58:00,
2013-04-21 09:04:00,54.7,36.9,29.41,SSE,151,5.4,6.3,51,0.00,,---,0.00,VWS V14.00,2013-04-21 14:04:00,
2013-04-21 09:05:00,54.7,36.9,29.41,SSE,151,5.4,6.3,51,0.00,,---,0.00,VWS V14.00,2013-04-21 14:05:00,
2013-04-21 09:13:00,55.0,37.2,29.41,South,171,6.3,6.3,51,0.00,,---,0.00,VWS V14.00,2013-04-21 14:13:00,
2013-04-21 09:16:00,55.2,36.9,29.41,SSE,167,6.3,6.3,50,0.00,,---,0.00,VWS V14.00,2013-04-21 14:16:00,
2013-04-21 09:19:00,55.4,37.1,29.41,SSE,148,7.6,7.6,50,0.00,,---,0.00,VWS V14.00,2013-04-21 14:19:00,
2013-04-21 09:20:00,55.4,37.1,29.41,SSE,155,6.7,7.6,50,0.00,,---,0.00,VWS V14.00,2013-04-21 14:20:00,
2013-04-21 09:22:00,55.7,37.4,29.41,SSE,163,3.6,6.7,50,0.00,,---,0.00,VWS V14.00,2013-04-21 14:22:00,
2013-04-21 09:25:00,55.9,37.6,29.41,SSE,155,5.4,6.7,50,0.00,,---,0.00,VWS V14.00,2013-04-21 14:25:00,
2013-04-21 09:31:00,56.6,38.2,29.41,SSE,161,5.4,7.2,50,0.00,,---,0.00,VWS V14.00,2013-04-21 14:31:00,
2013-04-21 09:35:00,56.6,38.2,29.41,South,170,5.8,8.3,50,0.00,,---,0.00,VWS V14.00,2013-04-21 14:35:00,
2013-04-21 09:40:00,57.2,38.2,29.41,SSE,156,8.1,8.1,49,0.00,,---,0.00,VWS V14.00,2013-04-21 14:40:00,
2013-04-21 09:43:00,57.2,38.2,29.41,SSE,160,6.3,8.1,49,0.00,,---,0.00,VWS V14.00,2013-04-21 14:43:00,
2013-04-21 09:46:00,57.5,38.5,29.41,SE,145,8.1,8.1,49,0.00,,---,0.00,VWS V14.00,2013-04-21 14:46:00,
2013-04-21 09:49:00,57.7,38.2,29.41,SE,145,8.1,8.1,48,0.00,,---,0.00,VWS V14.00,2013-04-21 14:49:00,
2013-04-21 09:50:00,57.7,38.2,29.41,SE,145,8.1,8.1,48,0.00,,---,0.00,VWS V14.00,2013-04-21 14:50:00,
2013-04-21 09:55:00,57.9,38.3,29.41,South,170,8.1,8.1,48,0.00,,---,0.00,VWS V14.00,2013-04-21 14:55:00,
2013-04-21 09:58:00,58.1,38.0,29.41,South,170,8.1,8.1,47,0.00,,---,0.00,VWS V14.00,2013-04-21 14:58:00,
2013-04-21 10:01:00,58.1,38.0,29.41,SSE,166,6.3,8.1,47,0.00,,---,0.00,VWS V14.00,2013-04-21 15:01:00,
2013-04-21 10:04:00,58.3,38.1,29.41,SSE,166,6.3,8.1,47,0.00,,---,0.00,VWS V14.00,2013-04-21 15:04:00,
2013-04-21 10:10:00,58.6,38.5,29.41,SSE,158,5.4,7.6,47,0.00,,---,0.00,VWS V14.00,2013-04-21 15:10:00,
2013-04-21 10:13:00,58.8,38.6,29.41,SSE,155,8.3,8.3,47,0.00,,---,0.00,VWS V14.00,2013-04-21 15:13:00,
2013-04-21 10:19:00,58.8,38.1,29.41,SSE,168,5.8,8.3,46,0.00,,---,0.00,VWS V14.00,2013-04-21 15:19:00,
2013-04-21 10:25:00,59.0,38.2,29.41,SSE,165,5.8,8.7,46,0.00,,---,0.00,VWS V14.00,2013-04-21 15:25:00,
2013-04-21 10:28:00,59.7,38.9,29.41,SE,142,5.8,8.7,46,0.00,,---,0.00,VWS V14.00,2013-04-21 15:28:00,
2013-04-21 10:34:00,60.1,39.2,29.41,SE,146,6.3,8.7,46,0.00,,---,0.00,VWS V14.00,2013-04-21 15:34:00,
2013-04-21 10:37:00,60.2,39.4,29.41,SE,146,6.3,6.3,46,0.00,,---,0.00,VWS V14.00,2013-04-21 15:37:00,
2013-04-21 10:40:00,60.2,39.4,29.41,SE,139,6.3,6.3,46,0.00,,---,0.00,VWS V14.00,2013-04-21 15:40:00,
2013-04-21 10:44:00,60.2,38.8,29.41,SSE,163,5.4,6.7,45,0.00,,---,0.00,VWS V14.00,2013-04-21 15:44:00,
2013-04-21 10:47:00,60.4,39.0,29.41,SSE,163,5.4,6.7,45,0.00,,---,0.00,VWS V14.00,2013-04-21 15:47:00,
2013-04-21 10:50:00,60.6,39.2,29.41,SE,143,8.1,8.1,45,0.00,,---,0.00,VWS V14.00,2013-04-21 15:50:00,
2013-04-21 10:56:00,61.3,39.8,29.41,SSE,153,8.1,8.1,45,0.00,,---,0.00,VWS V14.00,2013-04-21 15:56:00,
2013-04-21 10:59:00,61.5,39.4,29.41,South,186,8.1,8.1,44,0.00,,---,0.00,VWS V14.00,2013-04-21 15:59:00,
2013-04-21 11:02:00,61.5,39.4,29.41,SSE,153,9.2,9.2,44,0.00,,---,0.00,VWS V14.00,2013-04-21 16:02:00,
2013-04-21 11:05:00,61.5,39.4,29.41,SSE,164,7.2,9.2,44,0.00,,---,0.00,VWS V14.00,2013-04-21 16:05:00,
2013-04-21 11:11:00,61.9,39.7,29.41,SSE,151,8.3,8.3,44,0.00,,---,0.00,VWS V14.00,2013-04-21 16:11:00,
2013-04-21 11:14:00,62.0,39.9,29.41,SSW,204,8.1,8.3,44,0.00,,---,0.00,VWS V14.00,2013-04-21 16:14:00,
2013-04-21 11:17:00,62.4,40.2,29.41,SSE,168,8.1,8.3,44,0.00,,---,0.00,VWS V14.00,2013-04-21 16:17:00,
2013-04-21 11:20:00,62.6,40.4,29.41,SSE,150,8.1,8.3,44,0.00,,---,0.00,VWS V14.00,2013-04-21 16:20:00,
2013-04-21 11:26:00,62.9,40.1,29.41,SSE,165,8.7,8.7,43,0.00,,---,0.00,VWS V14.00,2013-04-21 16:26:00,
2013-04-21 11:29:00,63.1,40.3,29.41,SE,145,8.1,8.7,43,0.00,,---,0.00,VWS V14.00,2013-04-21 16:29:00,
2013-04-21 11:32:00,63.1,40.3,29.41,SSE,147,5.8,8.7,43,0.00,,---,0.00,VWS V14.00,2013-04-21 16:32:00,
2013-04-21 11:35:00,63.3,40.5,29.41,SSE,151,6.3,8.7,43,0.00,,---,0.00,VWS V14.00,2013-04-21 16:35:00,
2013-04-21 11:38:00,63.5,40.6,29.41,SSW,194,6.3,6.3,43,0.00,,---,0.00,VWS V14.00,2013-04-21 16:38:00,
2013-04-21 11:44:00,64.0,41.1,29.41,South,176,7.2,7.2,43,0.00,,---,0.00,VWS V14.00,2013-04-21 16:44:00,
2013-04-21 11:47:00,64.4,40.8,29.41,South,176,7.2,7.2,42,0.00,,---,0.00,VWS V14.00,2013-04-21 16:47:00,
2013-04-21 11:50:00,64.4,40.8,29.41,SSE,156,9.6,9.6,42,0.00,,---,0.00,VWS V14.00,2013-04-21 16:50:00,
2013-04-21 11:53:00,64.9,41.3,29.41,South,172,7.6,7.6,42,0.00,,---,0.00,VWS V14.00,2013-04-21 16:53:00,
2013-04-21 11:56:00,65.3,42.2,29.41,South,170,6.3,7.6,43,0.00,,---,0.00,VWS V14.00,2013-04-21 16:56:00,
2013-04-21 12:02:00,66.2,42.4,29.41,SSE,168,6.7,7.6,42,0.00,,---,0.00,VWS V14.00,2013-04-21 17:02:00,
2013-04-21 12:05:00,66.2,41.2,29.41,SSE,164,7.6,7.6,40,0.00,,---,0.00,VWS V14.00,2013-04-21 17:05:00,
2013-04-21 12:08:00,66.2,41.2,29.41,SSE,165,4.9,7.6,40,0.00,,---,0.00,VWS V14.00,2013-04-21 17:08:00,
2013-04-21 12:14:00,66.4,41.3,29.38,SSE,166,5.8,7.6,40,0.00,,---,0.00,VWS V14.00,2013-04-21 17:14:00,
2013-04-21 12:17:00,66.4,40.7,29.38,SE,146,7.2,7.6,39,0.00,,---,0.00,VWS V14.00,2013-04-21 17:17:00,
2013-04-21 12:20:00,66.4,41.3,29.38,SSE,165,7.6,7.6,40,0.00,,---,0.00,VWS V14.00,2013-04-21 17:20:00,
2013-04-21 12:26:00,66.4,41.3,29.38,SSE,152,8.1,8.1,40,0.00,,---,0.00,VWS V14.00,2013-04-21 17:26:00,
2013-04-21 12:29:00,66.4,40.7,29.38,SSE,152,8.1,8.1,39,0.00,,---,0.00,VWS V14.00,2013-04-21 17:29:00,
2013-04-21 12:32:00,66.5,41.5,29.38,South,170,8.3,8.3,40,0.00,,---,0.00,VWS V14.00,2013-04-21 17:32:00,
2013-04-21 12:35:00,66.9,41.8,29.38,South,170,5.4,8.3,40,0.00,,---,0.00,VWS V14.00,2013-04-21 17:35:00,
2013-04-21 12:38:00,67.1,41.3,29.38,SSE,160,6.3,6.3,39,0.00,,---,0.00,VWS V14.00,2013-04-21 17:38:00,
2013-04-21 12:41:00,67.1,41.3,29.38,SSE,167,5.8,8.1,39,0.00,,---,0.00,VWS V14.00,2013-04-21 17:41:00,
2013-04-21 12:44:00,67.1,41.3,29.38,SSE,158,5.8,8.1,39,0.00,,---,0.00,VWS V14.00,2013-04-21 17:44:00,
2013-04-21 12:47:00,67.3,40.8,29.38,SSE,154,5.8,8.1,38,0.00,,---,0.00,VWS V14.00,2013-04-21 17:47:00,
2013-04-21 12:50:00,67.3,40.8,29.38,SSE,166,5.4,8.1,38,0.00,,---,0.00,VWS V14.00,2013-04-21 17:50:00,
2013-04-21 12:56:00,67.3,41.5,29.38,SE,143,6.3,6.3,39,0.00,,---,0.00,VWS V14.00,2013-04-21 17:56:00,
2013-04-21 12:59:00,67.1,41.3,29.38,SSE,166,7.6,7.6,39,0.00,,---,0.00,VWS V14.00,2013-04-21 17:59:00,
2013-04-21 13:02:00,66.7,41.0,29.38,South,172,6.3,7.6,39,0.00,,---,0.00,VWS V14.00,2013-04-21 18:02:00,
2013-04-21 13:05:00,66.4,40.0,29.35,SSE,163,6.7,7.6,38,0.00,,---,0.00,VWS V14.00,2013-04-21 18:05:00,
2013-04-21 13:11:00,66.2,39.8,29.35,SSE,156,8.7,8.7,38,0.00,,---,0.00,VWS V14.00,2013-04-21 18:11:00,
2013-04-21 13:17:00,65.6,40.0,29.35,South,184,5.4,8.7,39,0.00,,---,0.00,VWS V14.00,2013-04-21 18:17:00,
2013-04-21 13:20:00,65.5,39.9,29.35,South,184,5.4,8.7,39,0.00,,---,0.00,VWS V14.00,2013-04-21 18:20:00,
2013-04-21 13:23:00,65.3,40.4,29.35,South,184,5.4,5.4,40,0.00,,---,0.00,VWS V14.00,2013-04-21 18:23:00,
2013-04-21 13:26:00,65.1,39.5,29.35,SSE,164,7.6,7.6,39,0.00,,---,0.00,VWS V14.00,2013-04-21 18:26:00,
2013-04-21 13:29:00,65.3,39.7,29.35,SSE,168,5.4,7.6,39,0.00,,---,0.00,VWS V14.00,2013-04-21 18:29:00,
2013-04-21 13:32:00,65.3,39.7,29.35,South,175,7.6,7.6,39,0.00,,---,0.00,VWS V14.00,2013-04-21 18:32:00,
2013-04-21 13:35:00,66.0,39.7,29.35,South,175,7.6,7.6,38,0.00,,---,0.00,VWS V14.00,2013-04-21 18:35:00,
2013-04-21 13:38:00,66.4,40.0,29.35,South,179,7.6,7.6,38,0.00,,---,0.00,VWS V14.00,2013-04-21 18:38:00,
2013-04-21 13:41:00,66.9,40.5,29.35,South,179,7.6,7.6,38,0.00,,---,0.00,VWS V14.00,2013-04-21 18:41:00,
2013-04-21 13:44:00,67.3,40.8,29.35,South,171,9.6,9.6,38,0.00,,---,0.00,VWS V14.00,2013-04-21 18:44:00,
2013-04-21 13:47:00,67.3,40.1,29.35,SSE,157,8.7,9.6,37,0.00,,---,0.00,VWS V14.00,2013-04-21 18:47:00,
2013-04-21 13:50:00,66.7,39.7,29.35,SSE,157,8.7,9.6,37,0.00,,---,0.00,VWS V14.00,2013-04-21 18:50:00,
2013-04-21 13:53:00,66.5,39.5,29.35,SSE,168,8.3,8.7,37,0.00,,---,0.00,VWS V14.00,2013-04-21 18:53:00,
2013-04-21 13:59:00,66.5,39.5,29.35,SSE,168,7.6,10.1,37,0.00,,---,0.00,VWS V14.00,2013-04-21 18:59:00,
2013-04-21 14:02:00,66.9,39.8,29.35,SSE,168,7.6,10.1,37,0.00,,---,0.00,VWS V14.00,2013-04-21 19:02:00,
2013-04-21 14:05:00,66.9,39.8,29.35,SSE,168,7.6,10.1,37,0.00,,---,0.00,VWS V14.00,2013-04-21 19:05:00,
2013-04-21 14:11:00,66.9,39.1,29.32,SSE,164,8.1,8.3,36,0.00,,---,0.00,VWS V14.00,2013-04-21 19:11:00,
2013-04-21 14:14:00,66.9,39.1,29.32,South,173,6.3,8.3,36,0.00,,---,0.00,VWS V14.00,2013-04-21 19:14:00,
2013-04-21 14:20:00,66.9,39.1,29.32,South,179,4.9,8.3,36,0.00,,---,0.00,VWS V14.00,2013-04-21 19:20:00,
2013-04-21 14:26:00,67.4,39.6,29.32,South,173,5.8,8.3,36,0.00,,---,0.00,VWS V14.00,2013-04-21 19:26:00,
2013-04-21 14:29:00,67.4,39.6,29.32,South,174,14.5,14.5,36,0.00,,---,0.00,VWS V14.00,2013-04-21 19:29:00,
2013-04-21 14:32:00,68.0,39.3,29.32,South,176,6.3,14.5,35,0.00,,---,0.00,VWS V14.00,2013-04-21 19:32:00,
2013-04-21 14:35:00,68.0,39.3,29.32,South,171,8.1,14.5,35,0.00,,---,0.00,VWS V14.00,2013-04-21 19:35:00,
2013-04-21 14:41:00,68.0,39.3,29.32,SSE,158,8.3,8.3,35,0.00,,---,0.00,VWS V14.00,2013-04-21 19:41:00,
2013-04-21 14:44:00,68.0,39.3,29.32,SE,144,8.3,8.3,35,0.00,,---,0.00,VWS V14.00,2013-04-21 19:44:00,
2013-04-21 14:47:00,68.0,39.3,29.32,South,171,8.1,8.3,35,0.00,,---,0.00,VWS V14.00,2013-04-21 19:47:00,
2013-04-21 14:50:00,66.5,38.1,29.32,South,184,10.5,10.5,35,0.00,,---,0.00,VWS V14.00,2013-04-21 19:50:00,
2013-04-21 14:53:00,66.5,38.1,29.32,South,173,10.1,10.5,35,0.00,,---,0.00,VWS V14.00,2013-04-21 19:53:00,
2013-04-21 14:56:00,66.5,38.1,29.32,SSE,155,8.1,10.5,35,0.00,,---,0.00,VWS V14.00,2013-04-21 19:56:00,
2013-04-21 14:59:00,67.4,38.9,29.32,SSE,164,8.3,10.5,35,0.00,,---,0.00,VWS V14.00,2013-04-21 19:59:00,
2013-04-21 15:02:00,67.6,39.0,29.32,South,180,5.4,10.5,35,0.00,,---,0.00,VWS V14.00,2013-04-21 20:02:00,
2013-04-21 15:05:00,67.6,39.0,29.32,South,188,5.4,10.5,35,0.00,,---,0.00,VWS V14.00,2013-04-21 20:05:00,
2013-04-21 15:08:00,67.6,39.0,29.32,SSE,155,11.0,11.0,35,0.00,,---,0.00,VWS V14.00,2013-04-21 20:08:00,
2013-04-21 15:11:00,67.6,39.0,29.29,SSE,154,6.7,11.0,35,0.00,,---,0.00,VWS V14.00,2013-04-21 20:11:00,
2013-04-21 15:17:00,69.2,40.5,29.29,SSE,165,8.1,11.0,35,0.00,,---,0.00,VWS V14.00,2013-04-21 20:17:00,
2013-04-21 15:20:00,69.2,40.5,29.29,SE,146,8.3,11.0,35,0.00,,---,0.00,VWS V14.00,2013-04-21 20:20:00,
2013-04-21 15:26:00,69.2,40.5,29.29,SSE,158,8.3,8.3,35,0.00,,---,0.00,VWS V14.00,2013-04-21 20:26:00,
2013-04-21 15:29:00,69.2,40.5,29.29,SE,132,7.6,8.3,35,0.00,,---,0.00,VWS V14.00,2013-04-21 20:29:00,
2013-04-21 15:35:00,69.1,39.5,29.29,SSE,158,6.3,12.8,34,0.00,,---,0.00,VWS V14.00,2013-04-21 20:35:00,
2013-04-21 15:38:00,69.1,39.5,29.29,South,175,12.3,12.3,34,0.00,,---,0.00,VWS V14.00,2013-04-21 20:38:00,
2013-04-21 15:44:00,69.1,39.5,29.29,SE,141,8.3,12.3,34,0.00,,---,0.00,VWS V14.00,2013-04-21 20:44:00,
2013-04-21 15:50:00,69.1,39.5,29.29,SSE,152,8.7,14.5,34,0.00,,---,0.00,VWS V14.00,2013-04-21 20:50:00,
2013-04-21 15:53:00,69.1,39.5,29.29,SSE,165,6.3,8.7,34,0.00,,---,0.00,VWS V14.00,2013-04-21 20:53:00,
2013-04-21 15:56:00,69.1,39.5,29.29,SSW,203,11.0,11.0,34,0.00,,---,0.00,VWS V14.00,2013-04-21 20:56:00,
2013-04-21 15:59:00,69.1,39.5,29.29,SSE,167,12.3,12.3,34,0.00,,---,0.00,VWS V14.00,2013-04-21 20:59:00,
2013-04-21 16:02:00,69.1,39.5,29.29,SE,142,6.3,12.3,34,0.00,,---,0.00,VWS V14.00,2013-04-21 21:02:00,
2013-04-21 16:05:00,69.1,39.5,29.29,SSE,152,7.2,12.3,34,0.00,,---,0.00,VWS V14.00,2013-04-21 21:05:00,
2013-04-21 16:08:00,69.1,39.5,29.29,SSE,152,7.6,10.1,34,0.00,,---,0.00,VWS V14.00,2013-04-21 21:08:00,
2013-04-21 16:11:00,69.1,39.5,29.26,SSE,152,7.6,10.1,34,0.00,,---,0.00,VWS V14.00,2013-04-21 21:11:00,
2013-04-21 16:14:00,69.1,39.5,29.26,South,170,11.4,11.4,34,0.00,,---,0.00,VWS V14.00,2013-04-21 21:14:00,
2013-04-21 16:17:00,69.1,39.5,29.26,South,170,10.1,11.4,34,0.00,,---,0.00,VWS V14.00,2013-04-21 21:17:00,
2013-04-21 16:20:00,69.1,39.5,29.26,South,177,11.9,11.9,34,0.00,,---,0.00,VWS V14.00,2013-04-21 21:20:00,
2013-04-21 16:23:00,69.1,39.5,29.26,SSE,151,12.3,12.3,34,0.00,,---,0.00,VWS V14.00,2013-04-21 21:23:00,
2013-04-21 16:26:00,69.2,38.9,29.26,SE,128,11.0,12.3,33,0.00,,---,0.00,VWS V14.00,2013-04-21 21:26:00,
2013-04-21 16:29:00,69.2,38.9,29.26,SSE,167,8.7,12.3,33,0.00,,---,0.00,VWS V14.00,2013-04-21 21:29:00,
2013-04-21 16:35:00,69.2,38.9,29.26,South,177,10.1,12.3,33,0.00,,---,0.00,VWS V14.00,2013-04-21 21:35:00,
2013-04-21 16:38:00,69.2,38.9,29.26,SSE,147,9.6,10.1,33,0.00,,---,0.00,VWS V14.00,2013-04-21 21:38:00,
2013-04-21 16:41:00,69.2,38.9,29.26,SSE,160,8.3,10.5,33,0.00,,---,0.00,VWS V14.00,2013-04-21 21:41:00,
2013-04-21 16:45:00,69.2,38.9,29.26,SSE,162,5.8,10.5,33,0.00,,---,0.00,VWS V14.00,2013-04-21 21:45:00,
2013-04-21 16:50:00,69.2,38.9,29.26,SSE,157,8.3,10.5,33,0.00,,---,0.00,VWS V14.00,2013-04-21 21:50:00,
2013-04-21 16:51:00,69.2,38.9,29.26,SSE,157,8.3,8.3,33,0.00,,---,0.00,VWS V14.00,2013-04-21 21:51:00,
2013-04-21 16:54:00,69.2,38.9,29.26,SE,144,8.3,8.3,33,0.00,,---,0.00,VWS V14.00,2013-04-21 21:54:00,
2013-04-21 16:57:00,66.9,36.9,29.26,SSE,162,10.1,10.1,33,0.00,,---,0.00,VWS V14.00,2013-04-21 21:57:00,
2013-04-21 17:00:00,66.9,36.9,29.26,South,170,8.7,10.1,33,0.00,,---,0.00,VWS V14.00,2013-04-21 22:00:00,
2013-04-21 17:03:00,66.9,36.9,29.26,South,170,8.7,10.1,33,0.00,,---,0.00,VWS V14.00,2013-04-21 22:03:00,
2013-04-21 17:05:00,66.9,36.9,29.26,SSE,149,7.6,10.1,33,0.00,,---,0.00,VWS V14.00,2013-04-21 22:05:00,
2013-04-21 17:06:00,66.9,36.9,29.26,SSE,149,7.6,7.6,33,0.00,,---,0.00,VWS V14.00,2013-04-21 22:06:00,
2013-04-21 17:09:00,66.9,36.9,29.26,SSE,147,6.3,7.6,33,0.00,,---,0.00,VWS V14.00,2013-04-21 22:09:00,
2013-04-21 17:12:00,66.9,36.9,29.26,SSE,147,6.3,7.6,33,0.00,,---,0.00,VWS V14.00,2013-04-21 22:12:00,
2013-04-21 17:18:00,68.2,38.0,29.26,SSE,151,8.3,10.1,33,0.00,,---,0.00,VWS V14.00,2013-04-21 22:18:00,
2013-04-21 17:20:00,68.2,38.0,29.26,SSE,153,6.3,10.1,33,0.00,,---,0.00,VWS V14.00,2013-04-21 22:20:00,
2013-04-21 17:24:00,68.2,38.0,29.26,South,178,8.7,8.7,33,0.00,,---,0.00,VWS V14.00,2013-04-21 22:24:00,
2013-04-21 17:27:00,68.2,38.0,29.26,South,175,10.1,10.1,33,0.00,,---,0.00,VWS V14.00,2013-04-21 22:27:00,
2013-04-21 17:33:00,67.4,37.4,29.26,SSE,159,6.3,10.1,33,0.00,,---,0.00,VWS V14.00,2013-04-21 22:33:00,
2013-04-21 17:35:00,67.4,37.4,29.26,SSE,161,6.3,10.1,33,0.00,,---,0.00,VWS V14.00,2013-04-21 22:35:00,
2013-04-21 17:39:00,67.4,37.4,29.26,SE,146,3.1,6.3,33,0.00,,---,0.00,VWS V14.00,2013-04-21 22:39:00,
2013-04-21 17:42:00,67.4,37.4,29.26,SSE,163,3.6,6.7,33,0.00,,---,0.00,VWS V14.00,2013-04-21 22:42:00,
2013-04-21 17:45:00,67.4,37.4,29.26,ESE,115,6.3,6.7,33,0.00,,---,0.00,VWS V14.00,2013-04-21 22:45:00,
2013-04-21 17:48:00,67.4,37.4,29.26,South,191,3.1,6.7,33,0.00,,---,0.00,VWS V14.00,2013-04-21 22:48:00,
2013-04-21 17:51:00,67.4,37.4,29.26,South,191,3.1,3.1,33,0.00,,---,0.00,VWS V14.00,2013-04-21 22:51:00,
2013-04-21 17:54:00,67.4,37.4,29.26,South,184,8.1,8.7,33,0.00,,---,0.00,VWS V14.00,2013-04-21 22:54:00,
2013-04-21 17:57:00,67.3,37.2,29.26,SSE,160,4.0,8.7,33,0.00,,---,0.00,VWS V14.00,2013-04-21 22:57:00,
2013-04-21 18:03:00,67.3,37.2,29.26,SSE,160,6.7,8.7,33,0.00,,---,0.00,VWS V14.00,2013-04-21 23:03:00,
2013-04-21 18:05:00,67.1,37.8,29.26,SSE,152,6.3,8.7,34,0.00,,---,0.00,VWS V14.00,2013-04-21 23:05:00,
2013-04-21 18:06:00,67.1,37.8,29.26,SSE,149,4.9,6.3,34,0.00,,---,0.00,VWS V14.00,2013-04-21 23:06:00,
2013-04-21 18:12:00,67.1,37.8,29.26,SSE,158,3.6,6.3,34,0.00,,---,0.00,VWS V14.00,2013-04-21 23:12:00,
2013-04-21 18:15:00,67.1,37.8,29.26,ESE,116,3.1,6.3,34,0.00,,---,0.00,VWS V14.00,2013-04-21 23:15:00,
2013-04-21 18:18:00,67.1,37.8,29.26,SSE,149,4.9,8.3,34,0.00,,---,0.00,VWS V14.00,2013-04-21 23:18:00,
2013-04-21 18:21:00,67.1,37.8,29.26,SSE,156,3.1,4.9,34,0.00,,---,0.00,VWS V14.00,2013-04-21 23:21:00,
2013-04-21 18:24:00,67.1,37.8,29.26,SSW,207,8.1,8.1,34,0.00,,---,0.00,VWS V14.00,2013-04-21 23:24:00,
2013-04-21 18:27:00,67.1,37.8,29.26,SSE,154,5.8,12.8,34,0.00,,---,0.00,VWS V14.00,2013-04-21 23:27:00,
2013-04-21 18:30:00,67.1,37.8,29.26,ESE,102,5.8,12.8,34,0.00,,---,0.00,VWS V14.00,2013-04-21 23:30:00,
2013-04-21 18:33:00,67.1,37.8,29.26,ESE,102,5.8,12.8,34,0.00,,---,0.00,VWS V14.00,2013-04-21 23:33:00,
2013-04-21 18:35:00,67.1,37.8,29.26,SSE,158,5.8,12.8,34,0.00,,---,0.00,VWS V14.00,2013-04-21 23:35:00,
2013-04-21 18:39:00,68.3,38.2,29.26,South,169,7.6,7.6,33,0.00,,---,0.00,VWS V14.00,2013-04-21 23:39:00,
2013-04-21 18:42:00,68.3,38.2,29.26,SSE,157,8.7,8.7,33,0.00,,---,0.00,VWS V14.00,2013-04-21 23:42:00,
2013-04-21 18:45:00,68.3,38.2,29.26,SSE,158,8.3,8.7,33,0.00,,---,0.00,VWS V14.00,2013-04-21 23:45:00,
2013-04-21 18:48:00,66.4,36.4,29.26,SSE,158,8.3,8.7,33,0.00,,---,0.00,VWS V14.00,2013-04-21 23:48:00,
2013-04-21 18:50:00,66.4,36.4,29.26,SSE,149,12.3,12.3,33,0.00,,---,0.00,VWS V14.00,2013-04-21 23:50:00,
2013-04-21 18:51:00,66.4,36.4,29.26,SSE,149,12.3,12.3,33,0.00,,---,0.00,VWS V14.00,2013-04-21 23:51:00,
2013-04-21 18:57:00,65.1,36.1,29.26,SE,136,4.0,12.3,34,0.00,,---,0.00,VWS V14.00,2013-04-21 23:57:00,
2013-04-21 19:00:00,65.1,36.1,29.26,SE,138,8.3,12.3,34,0.00,,---,0.00,VWS V14.00,2013-04-22 00:00:00,
2013-04-21 19:03:00,65.1,36.1,29.26,WSW,243,7.2,14.1,34,0.00,,---,0.00,VWS V14.00,2013-04-22 00:03:00,
2013-04-21 19:05:00,65.1,36.1,29.26,SSE,164,6.3,14.1,34,0.00,,---,0.00,VWS V14.00,2013-04-22 00:05:00,
2013-04-21 19:09:00,65.1,36.1,29.26,SE,128,7.6,10.5,34,0.00,,---,0.00,VWS V14.00,2013-04-22 00:09:00,
2013-04-21 19:12:00,65.1,36.1,29.26,SE,128,7.6,10.5,34,0.00,,---,0.00,VWS V14.00,2013-04-22 00:12:00,
2013-04-21 19:15:00,65.1,36.1,29.26,SSW,207,7.6,11.0,34,0.00,,---,0.00,VWS V14.00,2013-04-22 00:15:00,
2013-04-21 19:20:00,62.8,34.7,29.26,South,171,5.8,11.0,35,0.00,,---,0.00,VWS V14.00,2013-04-22 00:20:00,
2013-04-21 19:24:00,62.8,34.7,29.26,South,176,5.4,8.1,35,0.00,,---,0.00,VWS V14.00,2013-04-22 00:24:00,
2013-04-21 19:30:00,62.2,35.0,29.29,SSW,193,6.7,8.1,36,0.00,,---,0.00,VWS V14.00,2013-04-22 00:30:00,
2013-04-21 19:33:00,62.2,35.0,29.29,SSE,156,3.6,8.1,36,0.00,,---,0.00,VWS V14.00,2013-04-22 00:33:00,
2013-04-21 19:35:00,62.2,35.0,29.29,SSE,159,6.3,11.0,36,0.00,,---,0.00,VWS V14.00,2013-04-22 00:35:00,
2013-04-21 19:36:00,62.2,35.0,29.29,SSE,159,6.3,6.3,36,0.00,,---,0.00,VWS V14.00,2013-04-22 00:36:00,
2013-04-21 19:42:00,61.5,34.3,29.29,SSE,149,8.3,8.3,36,0.00,,---,0.00,VWS V14.00,2013-04-22 00:42:00,
2013-04-21 19:45:00,61.5,34.3,29.29,SSE,150,5.8,8.3,36,0.00,,---,0.00,VWS V14.00,2013-04-22 00:45:00,
2013-04-21 19:50:00,61.5,34.3,29.29,SE,137,5.8,8.3,36,0.00,,---,0.00,VWS V14.00,2013-04-22 00:50:00,
2013-04-21 19:51:00,61.5,34.3,29.29,SSE,168,7.6,7.6,36,0.00,,---,0.00,VWS V14.00,2013-04-22 00:51:00,
2013-04-21 19:57:00,61.5,34.3,29.29,South,172,5.8,7.6,36,0.00,,---,0.00,VWS V14.00,2013-04-22 00:57:00,
2013-04-21 20:00:00,61.5,34.3,29.29,SSE,153,4.5,7.6,36,0.00,,---,0.00,VWS V14.00,2013-04-22 01:00:00,
2013-04-21 20:03:00,60.2,33.9,29.29,South,172,3.6,7.6,37,0.00,,---,0.00,VWS V14.00,2013-04-22 01:03:00,
2013-04-21 20:05:00,60.2,33.9,29.29,SSE,160,5.8,8.7,37,0.00,,---,0.00,VWS V14.00,2013-04-22 01:05:00,
2013-04-21 20:09:00,60.2,33.9,29.29,South,173,5.4,5.8,37,0.00,,---,0.00,VWS V14.00,2013-04-22 01:09:00,
2013-04-21 20:12:00,59.9,33.6,29.29,South,173,5.4,5.8,37,0.00,,---,0.00,VWS V14.00,2013-04-22 01:12:00,
2013-04-21 20:18:00,59.9,33.6,29.29,SSE,148,4.9,5.8,37,0.00,,---,0.00,VWS V14.00,2013-04-22 01:18:00,
2013-04-21 20:20:00,59.5,33.9,29.29,SSE,148,4.9,5.8,38,0.00,,---,0.00,VWS V14.00,2013-04-22 01:20:00,
2013-04-21 20:21:00,59.5,33.9,29.29,SE,142,5.4,5.4,38,0.00,,---,0.00,VWS V14.00,2013-04-22 01:21:00,
2013-04-21 20:24:00,59.5,33.9,29.29,SE,142,5.4,5.4,38,0.00,,---,0.00,VWS V14.00,2013-04-22 01:24:00,
2013-04-21 20:27:00,59.2,33.6,29.29,ESE,114,4.0,5.4,38,0.00,,---,0.00,VWS V14.00,2013-04-22 01:27:00,
2013-04-21 20:30:00,59.2,33.6,29.29,South,181,5.4,5.4,38,0.00,,---,0.00,VWS V14.00,2013-04-22 01:30:00,
2013-04-21 20:33:00,59.2,33.6,29.29,South,190,5.4,5.4,38,0.00,,---,0.00,VWS V14.00,2013-04-22 01:33:00,
2013-04-21 20:35:00,59.2,33.6,29.29,South,179,5.8,5.8,38,0.00,,---,0.00,VWS V14.00,2013-04-22 01:35:00,
2013-04-21 20:36:00,59.2,33.6,29.29,South,179,5.8,5.8,38,0.00,,---,0.00,VWS V14.00,2013-04-22 01:36:00,
2013-04-21 20:39:00,59.2,33.6,29.29,South,178,3.6,5.8,38,0.00,,---,0.00,VWS V14.00,2013-04-22 01:39:00,
2013-04-21 20:42:00,59.2,33.6,29.29,SSE,163,6.3,6.3,38,0.00,,---,0.00,VWS V14.00,2013-04-22 01:42:00,
2013-04-21 20:45:00,59.2,33.6,29.29,SSE,168,5.4,7.6,38,0.00,,---,0.00,VWS V14.00,2013-04-22 01:45:00,
2013-04-21 20:48:00,59.2,33.6,29.29,South,181,6.3,7.6,38,0.00,,---,0.00,VWS V14.00,2013-04-22 01:48:00,
2013-04-21 20:50:00,59.2,33.6,29.29,South,170,8.7,8.7,38,0.00,,---,0.00,VWS V14.00,2013-04-22 01:50:00,
2013-04-21 20:51:00,59.2,33.6,29.29,South,181,5.4,8.7,38,0.00,,---,0.00,VWS V14.00,2013-04-22 01:51:00,
2013-04-21 20:57:00,59.2,33.6,29.29,SSE,161,8.1,8.7,38,0.00,,---,0.00,VWS V14.00,2013-04-22 01:57:00,
2013-04-21 21:03:00,58.1,34.5,29.29,South,189,5.4,8.7,41,0.00,,---,0.00,VWS V14.00,2013-04-22 02:03:00,
2013-04-21 21:05:00,58.1,34.5,29.29,SSE,164,5.4,8.7,41,0.00,,---,0.00,VWS V14.00,2013-04-22 02:05:00,
2013-04-21 21:09:00,58.1,34.5,29.29,South,169,3.6,5.4,41,0.00,,---,0.00,VWS V14.00,2013-04-22 02:09:00,
2013-04-21 21:12:00,57.7,34.2,29.29,ESE,122,4.0,5.4,41,0.00,,---,0.00,VWS V14.00,2013-04-22 02:12:00,
2013-04-21 21:15:00,57.7,34.2,29.29,SSW,192,6.3,6.3,41,0.00,,---,0.00,VWS V14.00,2013-04-22 02:15:00,
2013-04-21 21:18:00,57.7,34.2,29.32,SSW,192,6.3,6.3,41,0.00,,---,0.00,VWS V14.00,2013-04-22 02:18:00,
2013-04-21 21:21:00,57.5,34.0,29.32,ESE,115,5.4,5.4,41,0.00,,---,0.00,VWS V14.00,2013-04-22 02:21:00,
2013-04-21 21:24:00,57.5,34.0,29.32,SSE,154,8.3,8.3,41,0.00,,---,0.00,VWS V14.00,2013-04-22 02:24:00,
2013-04-21 21:27:00,57.5,34.0,29.32,SSE,167,4.9,8.3,41,0.00,,---,0.00,VWS V14.00,2013-04-22 02:27:00,
2013-04-21 21:30:00,57.5,34.0,29.32,SSE,166,6.3,8.3,41,0.00,,---,0.00,VWS V14.00,2013-04-22 02:30:00,
2013-04-21 21:33:00,57.5,34.0,29.32,South,171,6.3,8.3,41,0.00,,---,0.00,VWS V14.00,2013-04-22 02:33:00,
2013-04-21 21:35:00,57.5,34.0,29.32,South,181,3.6,8.3,41,0.00,,---,0.00,VWS V14.00,2013-04-22 02:35:00,
2013-04-21 21:39:00,57.5,34.0,29.32,ESE,109,5.8,5.8,41,0.00,,---,0.00,VWS V14.00,2013-04-22 02:39:00,
2013-04-21 21:42:00,57.2,34.3,29.32,SE,146,5.4,5.8,42,0.00,,---,0.00,VWS V14.00,2013-04-22 02:42:00,
2013-04-21 21:45:00,57.0,34.2,29.32,East,88,5.4,5.8,42,0.00,,---,0.00,VWS V14.00,2013-04-22 02:45:00,
2013-04-21 21:48:00,57.0,34.2,29.32,SSE,167,4.5,8.7,42,0.00,,---,0.00,VWS V14.00,2013-04-22 02:48:00,
2013-04-21 21:50:00,57.0,34.2,29.32,SSE,167,4.5,8.7,42,0.00,,---,0.00,VWS V14.00,2013-04-22 02:50:00,
2013-04-21 21:54:00,56.8,34.0,29.32,SE,131,4.0,4.9,42,0.00,,---,0.00,VWS V14.00,2013-04-22 02:54:00,
2013-04-21 22:00:00,56.8,34.0,29.32,South,172,5.8,6.7,42,0.00,,---,0.00,VWS V14.00,2013-04-22 03:00:00,
2013-04-21 22:03:00,56.8,34.0,29.32,South,172,5.8,6.7,42,0.00,,---,0.00,VWS V14.00,2013-04-22 03:03:00,
2013-04-21 22:05:00,56.8,34.0,29.32,South,188,2.7,6.7,42,0.00,,---,0.00,VWS V14.00,2013-04-22 03:05:00,
2013-04-21 22:09:00,56.8,34.0,29.32,SSE,167,5.4,8.1,42,0.00,,---,0.00,VWS V14.00,2013-04-22 03:09:00,
2013-04-21 22:12:00,56.8,34.0,29.32,SSE,162,4.0,8.1,42,0.00,,---,0.00,VWS V14.00,2013-04-22 03:12:00,
2013-04-21 22:15:00,56.8,34.0,29.32,SE,145,8.1,8.1,42,0.00,,---,0.00,VWS V14.00,2013-04-22 03:15:00,
2013-04-21 22:18:00,56.3,33.5,29.32,SSE,165,8.7,8.7,42,0.00,,---,0.00,VWS V14.00,2013-04-22 03:18:00,
2013-04-21 22:20:00,56.3,33.5,29.32,SW,220,4.0,8.7,42,0.00,,---,0.00,VWS V14.00,2013-04-22 03:20:00,
2013-04-21 22:21:00,56.3,33.5,29.32,SW,220,4.0,4.0,42,0.00,,---,0.00,VWS V14.00,2013-04-22 03:21:00,
2013-04-21 22:24:00,56.3,33.5,29.32,SSE,168,5.8,5.8,42,0.00,,---,0.00,VWS V14.00,2013-04-22 03:24:00,
2013-04-21 22:30:00,55.9,33.8,29.32,SSE,162,5.4,7.6,43,0.00,,---,0.00,VWS V14.00,2013-04-22 03:30:00,
2013-04-21 22:33:00,55.9,33.8,29.32,SSE,152,3.1,8.7,43,0.00,,---,0.00,VWS V14.00,2013-04-22 03:33:00,
2013-04-21 22:35:00,55.7,33.6,29.32,SSE,152,3.1,8.7,43,0.00,,---,0.00,VWS V14.00,2013-04-22 03:35:00,
2013-04-21 22:39:00,55.7,33.6,29.32,South,187,5.4,5.4,43,0.00,,---,0.00,VWS V14.00,2013-04-22 03:39:00,
2013-04-21 22:42:00,55.7,33.6,29.32,SE,125,3.6,6.3,43,0.00,,---,0.00,VWS V14.00,2013-04-22 03:42:00,
2013-04-21 22:45:00,55.6,33.4,29.32,SE,125,3.6,6.3,43,0.00,,---,0.00,VWS V14.00,2013-04-22 03:45:00,
2013-04-21 22:49:00,55.6,33.4,29.32,SE,125,3.6,6.3,43,0.00,,---,0.00,VWS V14.00,2013-04-22 03:49:00,
2013-04-21 22:50:00,55.6,33.4,29.32,SE,125,3.6,6.3,43,0.00,,---,0.00,VWS V14.00,2013-04-22 03:50:00,
2013-04-21 22:52:00,55.6,33.4,29.32,SE,144,3.6,3.6,43,0.00,,---,0.00,VWS V14.00,2013-04-22 03:52:00,
2013-04-21 22:58:00,55.2,33.7,29.32,SE,140,2.7,7.6,44,0.00,,---,0.00,VWS V14.00,2013-04-22 03:58:00,
2013-04-21 23:01:00,55.2,33.7,29.32,SSE,156,5.8,7.6,44,0.00,,---,0.00,VWS V14.00,2013-04-22 04:01:00,
2013-04-21 23:04:00,55.2,33.7,29.32,ESE,106,4.0,8.1,44,0.00,,---,0.00,VWS V14.00,2013-04-22 04:04:00,
2013-04-21 23:07:00,55.0,34.1,29.32,SSE,164,4.0,5.4,45,0.00,,---,0.00,VWS V14.00,2013-04-22 04:07:00,
2013-04-21 23:10:00,55.0,34.1,29.32,SE,146,4.0,5.4,45,0.00,,---,0.00,VWS V14.00,2013-04-22 04:10:00,
2013-04-21 23:13:00,55.0,34.1,29.32,SSE,162,5.4,5.4,45,0.00,,---,0.00,VWS V14.00,2013-04-22 04:13:00,
2013-04-21 23:16:00,55.0,34.1,29.32,South,172,2.7,5.8,45,0.00,,---,0.00,VWS V14.00,2013-04-22 04:16:00,
2013-04-21 23:20:00,54.7,33.8,29.32,SSE,164,5.4,5.8,45,0.00,,---,0.00,VWS V14.00,2013-04-22 04:20:00,
2013-04-21 23:22:00,54.7,33.8,29.32,SSE,164,5.4,5.4,45,0.00,,---,0.00,VWS V14.00,2013-04-22 04:22:00,
2013-04-21 23:28:00,54.5,33.6,29.32,South,176,4.0,5.4,45,0.00,,---,0.00,VWS V14.00,2013-04-22 04:28:00,
2013-04-21 23:31:00,54.5,33.6,29.32,South,176,0.0,5.4,45,0.00,,---,0.00,VWS V14.00,2013-04-22 04:31:00,
2013-04-21 23:35:00,54.3,34.0,29.32,South,180,0.0,5.4,46,0.00,,---,0.00,VWS V14.00,2013-04-22 04:35:00,
2013-04-21 23:40:00,54.1,33.8,29.32,South,180,0.0,0.0,46,0.00,,---,0.00,VWS V14.00,2013-04-22 04:40:00,
2013-04-21 23:43:00,53.9,33.7,29.32,South,180,0.0,0.0,46,0.00,,---,0.00,VWS V14.00,2013-04-22 04:43:00,
2013-04-21 23:46:00,53.9,33.7,29.32,South,180,0.0,0.0,46,0.00,,---,0.00,VWS V14.00,2013-04-22 04:46:00,
2013-04-21 23:49:00,53.9,33.7,29.32,South,180,0.0,0.0,46,0.00,,---,0.00,VWS V14.00,2013-04-22 04:49:00,
2013-04-21 23:50:00,53.6,33.3,29.32,South,180,0.0,0.0,46,0.00,,---,0.00,VWS V14.00,2013-04-22 04:50:00,
2013-04-21 23:55:00,53.6,33.3,29.32,South,180,0.0,0.0,46,0.00,,---,0.00,VWS V14.00,2013-04-22 04:55:00,
2013-04-21 23:58:00,53.6,33.3,29.32,South,180,0.0,0.0,46,0.00,,---,0.00,VWS V14.00,2013-04-22 04:58:00,